Weather in Talpaki

Russia / Kaliningrad Oblast     54°39′03″N   21°20′13″E
temp.,
°C
wind,
m/s
gust,
m/s
humid.,
%
clouds,
%
prec.,
mm/h
press.,
hPa
HPBL,
m
24 january, mon
mon2423:000s259495 0.0 1033167
02:00−2s389514 0.0 1033224
05:00−2s4109394 0.0 1033253
08:00−1ssw41092100 0.0 1032367
11:000ssw51090100 0.0 1032389
14:00+1ssw51193100 0.0 1031426
17:00+1sw41096100 0.1 1029401
20:00+2sw41198100 0.1 1028379
25 january, tue
tue2523:00+2wsw41198100 0.0 1027468
02:00+3wsw51293100 0.1 1025572
05:00+3wsw51393100 0.0 1024654
08:00+3w51294100 0.1 1022718
11:00+3wnw41097100 0.0 1022502
14:00+3nw3898100 0.1 1022373
17:00+1nnw379836 0.0 1023134
20:00−1n25935 0.0 102591
26 january, wed
wed2623:00−2n279498 0.0 1026178
02:00−2nnw1195100 0.0 102621
05:00−3w119323 0.0 102610
08:00−3sw1191100 0.0 102521
11:000ssw3679100 0.0 1024285
14:00+2sw4982100 0.0 1021532
17:00+1sw51498100 0.4 1018634
20:00+3wsw61497100 0.8 1015887
27 january, thu
thu2723:00+4w6138757 0.6 1014841
02:00+3w41189100 0.9 1013443
05:00+2w4129397 0.2 1012445
08:00+3wsw51294100 0.3 1009800
11:00+3sw51397100 0.9 1006952
14:00+3wsw71697100 2.4 10021067
17:00+4wsw81788100 0.3 9991242
20:00+4wsw91783100 0.4 9981391
28 january, fri
fri2823:00+3wsw91892100 0.1 9961436
02:00+3w81696100 2.1 9961202
05:00+3wnw61197100 1.6 996872
08:00+3nnw9168299 2.3 10011242
11:00+2nnw91582100 0.2 10061473
14:00+2nnw91582100 0.5 10101520
17:00+1nnw91582100 0.3 10131396
20:00+1nnw81477100 0.4 10161282